TimeCST,TemperatureF,Dew PointF,Humidity,Sea Level PressureIn,VisibilityMPH,Wind Direction,Wind SpeedMPH,Gust SpeedMPH,PrecipitationIn,Events,Conditions,WindDirDegrees,DateUTC
12:18 AM,35.2,28.4,76,29.94,10.0,NW,15.0,21.9,N/A,,Overcast,320,2013-11-18 06:18:00
12:38 AM,35.6,28.0,74,29.94,10.0,NW,17.3,26.5,N/A,,Overcast,310,2013-11-18 06:38:00
12:58 AM,35.6,28.0,74,29.95,10.0,NW,18.4,21.9,N/A,,Overcast,310,2013-11-18 06:58:00
1:18 AM,33.8,27.5,78,29.95,10.0,NNW,11.5,-,N/A,,Overcast,330,2013-11-18 07:18:00
1:38 AM,33.4,27.5,79,29.96,10.0,NNW,11.5,-,N/A,,Overcast,330,2013-11-18 07:38:00
1:58 AM,33.1,27.5,80,29.96,10.0,NW,12.7,-,N/A,,Overcast,320,2013-11-18 07:58:00
2:18 AM,32.9,27.5,81,29.98,10.0,NW,11.5,-,N/A,,Overcast,320,2013-11-18 08:18:00
2:38 AM,32.9,27.5,81,29.98,10.0,NW,9.2,-,N/A,,Overcast,310,2013-11-18 08:38:00
2:58 AM,33.3,26.6,77,29.99,10.0,NW,16.1,19.6,N/A,,Overcast,310,2013-11-18 08:58:00
3:18 AM,32.9,25.5,74,29.99,10.0,NW,17.3,24.2,N/A,,Overcast,310,2013-11-18 09:18:00
3:38 AM,32.4,25.2,75,30.01,10.0,NW,17.3,25.3,N/A,,Overcast,310,2013-11-18 09:38:00
3:58 AM,32.2,24.8,74,30.02,10.0,NW,19.6,26.5,N/A,,Overcast,310,2013-11-18 09:58:00
4:18 AM,32.0,25.2,76,30.02,10.0,NW,17.3,23.0,N/A,,Overcast,310,2013-11-18 10:18:00
4:37 AM,32.0,25.2,76,30.03,10.0,NW,17.3,23.0,N/A,,Overcast,310,2013-11-18 10:37:00
4:58 AM,31.1,24.4,76,30.04,10.0,NW,18.4,24.2,N/A,,Mostly Cloudy,320,2013-11-18 10:58:00
5:18 AM,30.2,23.9,77,30.04,10.0,NW,12.7,-,N/A,,Clear,310,2013-11-18 11:18:00
5:38 AM,29.3,23.7,80,30.04,10.0,WNW,8.1,-,N/A,,Clear,290,2013-11-18 11:38:00
5:58 AM,29.3,23.7,80,30.05,10.0,WNW,9.2,-,N/A,,Clear,300,2013-11-18 11:58:00
6:18 AM,30.2,23.9,77,30.06,10.0,NW,15.0,18.4,N/A,,Mostly Cloudy,310,2013-11-18 12:18:00
6:38 AM,30.9,23.9,75,30.07,10.0,NW,11.5,-,N/A,,Overcast,320,2013-11-18 12:38:00
6:58 AM,30.6,23.9,76,30.08,10.0,NW,12.7,-,N/A,,Overcast,320,2013-11-18 12:58:00
7:17 AM,30.6,23.9,76,30.09,10.0,NW,10.4,-,N/A,,Overcast,310,2013-11-18 13:17:00
7:37 AM,30.6,23.7,76,30.10,10.0,NW,10.4,-,N/A,,Overcast,320,2013-11-18 13:37:00
7:57 AM,30.7,23.7,75,30.11,10.0,NW,9.2,-,N/A,,Overcast,320,2013-11-18 13:57:00
8:18 AM,31.1,23.7,74,30.12,10.0,NNW,10.4,-,N/A,,Overcast,330,2013-11-18 14:18:00
8:38 AM,31.1,23.5,74,30.13,10.0,NW,15.0,-,N/A,,Overcast,320,2013-11-18 14:38:00
8:57 AM,31.6,23.7,73,30.14,10.0,NW,12.7,-,N/A,,Overcast,320,2013-11-18 14:57:00
9:17 AM,32.0,23.7,71,30.14,10.0,NW,13.8,19.6,N/A,,Overcast,320,2013-11-18 15:17:00
9:38 AM,32.7,24.4,72,30.15,10.0,NNW,11.5,16.1,N/A,,Overcast,330,2013-11-18 15:38:00
9:58 AM,33.4,24.3,69,30.16,10.0,NW,13.8,-,N/A,,Mostly Cloudy,310,2013-11-18 15:58:00
10:18 AM,34.5,24.4,67,30.16,10.0,NW,13.8,-,N/A,,Scattered Clouds,320,2013-11-18 16:18:00
10:38 AM,35.4,24.6,65,30.18,10.0,NW,15.0,-,N/A,,Clear,320,2013-11-18 16:38:00
10:58 AM,35.6,24.6,64,30.19,10.0,NW,11.5,17.3,N/A,,Clear,310,2013-11-18 16:58:00
11:17 AM,36.5,25.0,63,30.19,10.0,NNW,10.4,-,N/A,,Scattered Clouds,340,2013-11-18 17:17:00
11:38 AM,36.9,25.0,62,30.18,10.0,NW,11.5,-,N/A,,Clear,320,2013-11-18 17:38:00
11:58 AM,37.9,25.3,60,30.19,10.0,NW,8.1,16.1,N/A,,Clear,320,2013-11-18 17:58:00
12:17 PM,38.5,25.3,59,30.18,10.0,NW,11.5,-,N/A,,Clear,320,2013-11-18 18:17:00
12:38 PM,39.0,25.7,59,30.17,10.0,Calm,Calm,-,N/A,,Clear,0,2013-11-18 18:38:00
12:58 PM,40.1,26.1,57,30.17,10.0,Calm,Calm,-,N/A,,Clear,0,2013-11-18 18:58:00
1:18 PM,39.6,25.7,58,30.17,10.0,Calm,Calm,-,N/A,,Clear,0,2013-11-18 19:18:00
1:38 PM,40.8,25.9,55,30.17,10.0,Calm,Calm,-,N/A,,Clear,0,2013-11-18 19:38:00
1:57 PM,41.0,26.2,56,30.17,10.0,Calm,Calm,-,N/A,,Clear,0,2013-11-18 19:57:00
2:17 PM,41.4,26.1,55,30.17,10.0,Calm,Calm,-,N/A,,Clear,0,2013-11-18 20:17:00
2:38 PM,41.4,26.1,55,30.17,10.0,Calm,Calm,-,N/A,,Clear,0,2013-11-18 20:38:00
2:57 PM,41.2,25.9,55,30.17,10.0,Calm,Calm,-,N/A,,Clear,0,2013-11-18 20:57:00
3:17 PM,41.4,26.1,55,30.16,10.0,Calm,Calm,-,N/A,,Clear,0,2013-11-18 21:17:00
3:38 PM,41.2,26.1,55,30.16,10.0,Calm,Calm,-,N/A,,Clear,0,2013-11-18 21:38:00
3:58 PM,40.8,26.2,56,30.16,10.0,Calm,Calm,-,N/A,,Clear,0,2013-11-18 21:58:00
4:18 PM,39.6,25.9,58,30.17,10.0,Calm,Calm,-,N/A,,Clear,0,2013-11-18 22:18:00
4:37 PM,38.1,25.7,61,30.17,10.0,Calm,Calm,-,N/A,,Clear,0,2013-11-18 22:37:00
4:57 PM,36.9,25.5,64,30.17,10.0,Calm,Calm,-,N/A,,Clear,0,2013-11-18 22:57:00
5:18 PM,34.2,24.8,69,30.18,10.0,Calm,Calm,-,N/A,,Clear,0,2013-11-18 23:18:00
5:38 PM,33.4,25.0,71,30.18,10.0,Calm,Calm,-,N/A,,Clear,0,2013-11-18 23:38:00
5:57 PM,32.2,23.9,72,30.18,10.0,Calm,Calm,-,N/A,,Clear,0,2013-11-18 23:57:00
6:18 PM,32.0,23.9,72,30.19,10.0,Calm,Calm,-,N/A,,Clear,0,2013-11-19 00:18:00
6:38 PM,32.0,23.9,72,30.19,10.0,Calm,Calm,-,N/A,,Clear,0,2013-11-19 00:38:00
6:57 PM,30.6,23.7,76,30.19,10.0,Calm,Calm,-,N/A,,Clear,0,2013-11-19 00:57:00
7:18 PM,29.8,23.5,77,30.19,10.0,Calm,Calm,-,N/A,,Clear,0,2013-11-19 01:18:00
7:38 PM,29.3,23.0,77,30.19,10.0,Calm,Calm,-,N/A,,Clear,0,2013-11-19 01:38:00
7:57 PM,29.5,23.0,77,30.21,10.0,Calm,Calm,-,N/A,,Clear,0,2013-11-19 01:57:00
8:18 PM,30.0,23.0,75,30.21,10.0,Calm,Calm,-,N/A,,Clear,0,2013-11-19 02:18:00
8:38 PM,28.2,22.5,79,30.20,10.0,Calm,Calm,-,N/A,,Clear,0,2013-11-19 02:38:00
8:58 PM,28.4,22.6,79,30.20,10.0,Calm,Calm,-,N/A,,Clear,0,2013-11-19 02:58:00
9:18 PM,29.3,23.0,77,30.20,10.0,Calm,Calm,-,N/A,,Clear,0,2013-11-19 03:18:00
9:37 PM,29.5,23.4,78,30.20,10.0,South,6.9,-,N/A,,Clear,170,2013-11-19 03:37:00
9:58 PM,29.5,23.2,77,30.20,10.0,SSE,8.1,-,N/A,,Clear,160,2013-11-19 03:58:00
10:18 PM,29.3,23.0,77,30.20,10.0,South,8.1,-,N/A,,Clear,170,2013-11-19 04:18:00
10:38 PM,30.0,23.5,77,30.18,10.0,South,9.2,-,N/A,,Clear,170,2013-11-19 04:38:00
10:58 PM,30.0,23.7,77,30.19,10.0,South,10.4,-,N/A,,Clear,170,2013-11-19 04:58:00
11:18 PM,30.2,23.7,77,30.18,10.0,South,12.7,-,N/A,,Clear,170,2013-11-19 05:18:00
11:37 PM,30.2,23.7,77,30.18,10.0,South,10.4,-,N/A,,Clear,170,2013-11-19 05:37:00
11:58 PM,29.5,23.4,78,30.17,10.0,South,10.4,-,N/A,,Clear,170,2013-11-19 05:58:00